Dewpoint
59 59 59 58 58 60 59 56 60 59 59 58 59 60 60 60 60 60 59 60 60 60 60 60 61 60 60 60 60 59 59 37 25 24 20 24 51 56 54 57 56 58 59 43 30 26 21 15 10 12 15 17 23 22 26 23 31 43 31 28 24 23 21 22 17 14 17 16 25 25 21 16 27 36 33 33 32 30 30 23 17 17 20 26 29 34 37 38
58 58 58 59 58 59 58 58 59 59 59 59 59 60 60 59 60 59 59 60 60 60 60 60 60 60 60 59 59 59 54 36 28 13 19 50 54 53 54 55 57 58 55 30 25 17 8 6 8 11 10 13 20 18 19 20 20 29 31 26 22 23 19 18 10 10 10 9 5 19 23 18 26 32 30 27 30 31 30 28 20 18 21 26 31 34 36 37
58 58 59 57 58 58 59 59 60 59 59 59 58 59 59 59 60 58 59 60 60 60 61 61 61 60 59 60 59 58 46 20 16 16 28 52 53 53 55 56 56 58 44 29 25 19 12 10 12 9 7 6 12 14 17 14 17 22 25 20 19 20 13 10 9 10 12 6 5 7 23 17 28 26 29 27 30 29 23 31 25 18 18 23 28 31 34 35
57 57 58 58 58 59 59 58 58 59 58 58 58 57 59 59 58 59 59 60 60 60 61 61 61 60 59 59 58 54 38 26 9 23 29 55 55 55 53 54 58 53 44 42 35 24 15 14 9 6 7 6 9 7 17 17 18 15 17 16 17 13 11 9 11 10 10 12 7 7 22 15 26 26 25 30 28 19 18 20 21 21 18 23 27 30 31 32
58 59 58 58 58 58 59 58 58 58 57 58 58 58 58 59 58 58 58 59 60 61 61 61 61 59 60 59 58 44 34 14 13 20 24 51 54 53 53 55 57 47 39 35 30 22 15 10 5 3 7 12 10 10 8 10 11 19 12 11 9 10 6 10 10 12 12 15 11 12 17 21 25 20 18 19 21 19 20 21 24 22 21 23 25 27 29 30
58 58 59 59 58 58 58 59 59 58 58 58 58 59 59 58 58 58 58 59 60 60 61 61 61 59 59 59 54 42 33 19 39 18 49 48 52 52 53 54 56 51 39 28 24 18 13 9 6 9 11 7 8 9 7 7 9 12 14 8 10 9 4 10 10 16 10 14 13 18 22 23 24 17 16 17 17 18 22 27 27 24 22 21 23 26 27 29
58 59 58 59 58 58 58 58 59 58 58 59 58 58 58 58 58 58 58 59 59 59 60 61 61 60 57 53 47 42 32 14 15 19 44 48 48 53 53 49 54 48 33 22 17 16 10 8 5 9 7 11 10 5 3 6 10 17 12 5 1 11 12 9 9 14 10 15 12 16 25 18 18 17 15 15 17 21 26 28 30 28 26 23 23 25 24 22
58 58 58 58 58 57 57 58 59 58 58 58 58 58 58 58 58 58 58 58 59 59 60 61 60 59 55 42 40 40 32 12 13 26 41 48 30 29 47 34 31 26 16 15 12 10 9 7 5 7 4 10 18 7 27 5 12 20 18 10 8 12 10 8 8 8 11 12 9 14 12 11 14 15 16 15 16 17 19 22 24 23 22 22 21 21 21 20
58 58 58 58 57 56 56 58 58 58 58 58 58 58 59 58 58 58 58 58 58 59 59 60 61 59 55 35 24 21 11 13 15 17 19 18 18 19 35 17 22 14 13 13 13 11 10 10 5 5 14 8 5 14 35 29 20 25 11 8 5 10 13 8 9 9 8 10 11 9 8 12 13 15 14 15 16 17 18 20 21 21 20 20 21 22 21 22
58 58 58 57 56 58 58 58 58 58 58 58 58 59 58 58 58 58 58 58 58 58 59 60 59 57 49 31 37 22 8 11 15 18 18 18 17 17 18 18 17 15 15 13 12 10 10 10 10 10 10 8 6 15 24 31 22 32 26 25 16 14 12 10 8 8 8 11 9 7 8 9 12 11 14 17 17 18 17 18 18 18 19 20 20 21 22 22
58 58 58 58 58 58 58 58 57 57 58 58 58 58 58 58 58 58 58 58 58 58 60 60 58 49 27 25 20 12 12 12 22 18 18 19 17 18 16 17 17 16 15 13 13 14 12 12 16 12 32 28 19 24 28 30 29 17 12 18 18 15 11 10 9 9 8 8 9 8 6 6 10 17 14 15 16 17 17 18 19 20 20 20 21 20 21 19
58 58 57 57 57 58 58 58 57 57 58 58 58 58 58 58 58 58 58 58 58 59 59 59 57 36 30 27 13 10 13 19 33 19 19 20 19 18 24 20 18 17 16 15 13 15 16 18 18 38 22 25 25 25 32 22 22 18 25 21 18 14 11 10 8 8 9 9 8 7 7 15 16 13 15 16 17 17 18 19 19 19 19 19 18 17 16 15
57 57 57 57 57 57 57 58 58 58 58 58 58 58 58 58 58 58 58 57 58 59 59 58 56 37 36 31 14 14 24 24 34 19 20 21 20 23 19 20 18 18 17 16 13 16 31 30 18 12 36 29 29 27 37 22 15 32 17 18 18 19 14 12 10 8 8 7 9 11 14 15 12 13 14 16 17 18 18 18 18 18 17 16 15 13 12 12
56 57 57 57 56 57 58 57 58 58 58 58 58 58 58 58 58 58 58 58 59 58 56 59 52 41 39 21 12 14 20 26 25 19 19 21 20 18 18 19 19 19 28 17 18 27 23 22 21 18 40 27 31 35 21 17 31 25 21 24 20 17 15 11 9 8 8 11 10 11 18 14 13 14 15 15 17 18 18 18 17 17 15 14 14 12 11 10
57 56 56 56 57 57 57 57 58 58 58 58 58 58 58 58 58 58 58 58 58 58 58 53 42 45 42 21 13 16 49 27 20 18 20 22 20 19 16 18 17 20 17 18 19 27 23 27 23 20 28 38 38 35 27 24 19 22 22 23 26 20 26 13 12 10 8 10 8 21 19 14 12 13 14 16 18 18 17 17 16 15 14 13 12 11 10 10
56 55 55 56 56 56 56 56 57 57 56 57 57 57 58 57 58 59 60 60 59 58 53 45 48 31 32 13 21 38 21 18 19 19 25 22 21 19 20 19 19 17 15 17 19 19 18 17 16 38 36 23 25 18 21 23 20 23 20 19 18 19 22 21 24 13 18 10 10 18 19 13 12 14 14 16 18 18 17 16 15 14 13 12 11 11 10 10
55 55 56 57 56 55 56 56 56 56 56 57 57 55 57 57 57 58 57 57 53 53 37 40 43 32 25 15 18 17 17 19 20 19 19 22 21 21 20 19 17 15 15 21 16 22 19 14 35 30 36 17 20 27 23 21 19 22 25 19 24 14 19 18 18 28 26 22 18 20 17 13 13 14 15 17 18 17 16 16 15 15 14 13 12 10 10 10
56 56 56 56 55 55 55 56 56 55 55 56 56 55 49 55 51 53 52 54 53 54 47 39 38 37 23 16 14 15 18 19 20 20 19 17 23 22 20 17 17 16 14 14 14 12 13 17 23 20 20 23 19 23 18 16 24 22 22 21 20 19 18 16 23 26 23 28 27 14 14 14 14 15 16 17 18 18 17 16 15 14 13 13 12 11 11 11
56 56 57 56 56 56 55 56 55 54 55 56 56 55 54 53 50 48 37 36 45 39 36 31 31 24 23 17 16 17 19 20 22 19 14 16 21 22 22 21 18 15 24 15 22 12 18 27 34 28 27 25 23 27 24 26 23 24 22 22 24 20 17 19 25 31 31 21 25 16 15 14 14 15 16 18 18 18 17 16 15 14 14 13 12 12 12 13
56 56 56 56 56 55 55 56 55 54 55 53 51 53 46 45 46 43 39 34 33 35 35 38 24 33 14 16 16 18 22 25 17 16 16 19 21 21 20 18 21 20 29 29 31 21 38 27 24 26 27 25 22 24 23 22 24 25 27 25 23 24 23 26 27 29 30 23 17 16 16 15 15 16 17 18 18 18 17 16 15 15 14 14 13 13 13 13
56 56 56 56 56 55 55 55 56 53 54 55 55 53 33 38 37 30 35 35 36 35 35 40 39 20 17 18 18 20 19 17 18 15 16 21 20 21 19 19 22 25 28 37 33 41 39 28 27 28 21 22 23 25 27 26 27 26 27 25 22 24 19 27 28 28 31 28 19 18 16 16 16 16 17 18 19 18 17 16 15 15 15 14 14 15 15 14
56 56 56 57 56 55 54 55 54 54 54 57 46 36 38 39 47 47 43 30 38 44 34 25 26 14 20 19 20 23 22 13 14 14 17 20 16 16 25 21 21 25 31 31 31 32 30 25 28 22 23 25 28 32 29 29 27 26 23 22 20 20 27 29 30 28 28 26 19 17 16 15 15 16 18 18 18 19 18 17 16 15 15 15 14 14 15 14
55 56 56 57 57 55 54 55 56 54 53 49 47 45 42 47 44 47 38 41 33 43 42 37 26 13 16 20 19 23 19 15 17 14 17 19 18 25 32 17 22 25 33 24 24 23 27 28 17 21 27 27 22 29 30 28 28 23 21 20 17 24 20 13 26 27 28 21 20 18 15 15 16 17 18 19 19 19 19 18 18 18 15 15 14 15 14 13
54 55 56 56 56 54 56 55 54 54 47 45 45 44 46 47 45 45 44 40 35 42 41 37 29 15 15 19 19 20 18 17 17 15 21 19 20 30 29 29 26 28 24 31 25 25 26 27 18 29 31 29 26 27 24 19 15 26 28 23 16 21 22 20 18 26 27 27 26 18 16 15 17 16 18 19 20 19 20 18 18 18 18 17 17 16 15 14
54 55 56 56 54 54 53 53 48 44 46 49 45 45 46 46 48 47 47 38 39 37 36 44 36 15 17 26 23 24 21 25 18 19 25 20 23 25 30 34 32 25 27 33 30 32 28 26 27 29 23 25 28 25 22 20 14 15 26 24 21 21 21 19 20 19 15 18 24 21 13 13 16 16 17 19 19 19 19 18 17 17 17 17 15 15 17 17
55 55 55 55 54 53 54 51 46 47 48 40 45 44 46 47 49 50 41 34 26 27 42 27 24 21 24 25 21 33 30 26 25 21 35 21 27 25 31 28 32 25 30 32 26 27 25 30 27 28 25 28 30 24 26 21 14 12 22 26 24 20 21 23 20 20 15 11 22 23 11 8 15 15 17 18 19 18 19 19 18 17 16 17 17 16 16 15
55 55 53 53 53 53 52 42 42 52 47 49 46 46 46 49 51 52 41 26 23 33 29 37 32 34 39 25 25 37 14 24 19 25 22 25 31 40 34 20 32 37 37 33 29 20 29 28 26 28 25 28 27 17 22 20 17 9 23 26 24 22 21 21 22 19 13 19 26 23 14 7 12 15 17 19 18 18 19 18 18 17 17 18 17 18 17 17
55 54 52 55 54 52 50 47 50 46 40 48 47 44 48 46 52 48 37 18 18 35 25 30 31 35 23 28 22 21 22 29 27 22 28 38 33 35 33 28 26 28 30 33 18 28 30 29 27 27 29 22 16 17 23 25 20 20 25 28 22 21 20 22 20 17 16 13 12 17 23 9 10 14 17 18 17 18 18 18 18 17 17 17 18 18 18 19
55 52 53 54 52 50 55 47 49 47 46 47 49 45 51 52 45 42 33 17 25 34 40 25 43 28 25 32 23 31 34 33 22 30 29 34 34 34 24 35 30 27 33 34 21 24 32 26 30 31 25 17 23 18 21 24 23 29 29 28 26 26 24 25 18 16 14 12 11 14 18 12 10 13 14 17 17 17 18 18 19 18 18 18 18 18 19 20
55 54 52 50 54 57 46 50 42 48 47 49 49 51 49 46 43 31 16 8 34 24 34 31 27 25 32 27 33 23 24 29 34 30 35 31 19 22 37 30 29 29 29 35 30 29 29 33 33 28 20 22 21 20 24 23 23 27 26 25 24 23 22 20 18 16 14 12 11 16 16 11 8 12 11 12 18 18 19 19 19 19 18 18 19 19 21 20
55 54 52 48 41 44 46 40 47 49 51 50 51 49 47 46 30 16 1 12 35 31 37 33 29 35 29 27 24 25 33 33 28 30 28 30 24 23 24 29 26 29 25 26 25 31 32 32 32 27 31 28 24 23 29 28 28 27 22 17 15 12 16 13 13 14 10 10 11 8 12 17 7 13 16 17 18 19 18 19 19 18 18 19 20 20 20 20
54 53 53 45 48 52 35 43 49 51 51 50 49 47 44 30 21 12 14 43 28 24 26 23 32 29 28 31 26 22 26 30 29 31 26 25 21 19 18 17 20 17 14 10 13 28 28 19 26 31 28 28 24 17 28 29 28 26 22 12 11 11 10 8 8 9 12 11 6 6 14 8 10 14 16 16 17 18 19 21 20 19 19 19 20 20 21 21
54 53 52 48 45 42 44 48 50 51 50 51 48 46 36 17 8 18 17 21 20 30 25 33 31 28 28 30 25 25 32 26 30 29 33 32 23 23 24 21 23 21 10 13 15 13 16 25 26 29 26 26 22 9 10 10 14 13 9 10 12 8 6 5 7 7 8 10 9 8 13 7 13 14 15 14 18 19 19 21 21 20 20 20 21 21 21 21
54 53 56 48 48 44 46 48 50 51 51 47 43 43 24 15 10 25 17 21 26 33 32 33 29 30 32 20 27 25 13 31 27 25 26 23 19 18 19 22 22 20 22 15 9 10 14 12 20 21 14 23 20 15 19 18 15 13 19 12 12 12 8 5 7 7 9 11 9 15 7 9 12 15 16 15 18 20 20 21 21 21 21 21 21 21 21 20
52 55 56 50 52 48 48 49 51 51 51 45 41 29 17 13 15 18 20 23 27 30 30 32 30 29 29 26 30 27 24 19 29 27 22 20 16 17 18 18 23 22 22 16 16 16 18 14 23 26 22 21 21 24 26 24 18 19 17 19 15 12 11 10 11 10 9 11 9 8 11 13 14 16 16 16 17 18 20 20 21 20 21 20 19 20 19 19
52 55 54 49 47 47 49 51 50 50 49 46 22 18 16 19 18 22 26 34 32 27 25 28 29 23 14 17 27 21 33 19 24 24 23 21 24 19 24 24 21 21 17 15 17 15 14 7 24 26 25 12 14 24 24 23 11 10 13 15 9 14 11 12 12 14 13 10 11 16 12 12 13 13 13 14 15 17 17 18 19 19 19 18 18 18 17 16
53 49 50 50 46 49 48 50 50 49 47 37 22 18 24 26 30 32 32 29 32 29 28 17 21 21 16 16 16 18 20 27 23 19 11 25 19 24 24 25 26 23 19 17 19 17 14 12 17 22 21 20 20 19 24 26 18 16 14 9 18 19 18 11 9 10 10 7 5 7 9 11 13 10 11 12 12 14 15 16 15 17 17 16 17 17 16 16
47 48 49 47 45 49 49 47 49 45 45 23 23 24 28 27 33 33 34 33 31 32 27 18 19 23 18 15 14 19 22 18 18 19 18 20 16 26 24 23 24 19 21 25 17 18 19 14 15 18 19 27 25 21 22 24 25 17 12 21 13 11 11 11 8 5 6 2 1 4 11 13 14 14 12 11 10 11 11 12 12 13 13 13 14 14 15 15
51 47 42 45 51 48 51 46 44 46 38 26 26 26 31 30 33 33 33 33 33 28 21 23 21 23 22 18 18 20 21 18 19 18 16 17 13 26 23 26 24 23 23 25 18 16 21 14 13 19 14 19 17 21 14 10 22 23 20 15 19 12 12 10 9 9 9 7 4 3 9 8 10 11 9 7 8 10 10 11 10 10 11 11 14 14 15 16
48 47 43 52 52 52 48 44 46 30 28 25 25 26 32 32 34 34 34 35 30 28 21 22 27 21 21 22 23 18 21 22 16 17 19 21 19 26 22 22 23 23 26 28 20 23 18 16 13 13 18 21 10 9 9 10 12 14 13 14 15 13 14 13 13 10 10 5 6 6 5 10 9 8 8 7 8 10 11 10 10 10 11 12 12 14 15 15
46 44 45 53 52 52 51 45 26 24 26 25 29 31 35 33 35 34 37 35 36 35 27 28 24 21 25 22 20 24 21 18 20 17 18 20 17 16 26 23 27 23 25 27 20 19 17 13 13 11 11 9 15 17 15 11 12 11 11 12 12 14 13 9 6 14 12 10 7 6 5 10 11 10 9 8 9 9 10 10 10 11 11 12 13 14 13 12
44 32 34 45 50 51 51 27 27 23 26 27 29 36 32 34 34 33 34 36 36 28 32 30 28 28 24 22 25 22 23 20 21 19 20 18 25 21 29 31 30 27 20 19 17 22 17 14 12 15 11 15 10 12 19 20 20 18 12 12 13 14 13 8 6 10 13 10 11 12 6 10 11 9 9 9 8 9 10 9 10 11 11 12 12 12 12 12
37 36 46 47 51 50 30 26 30 28 26 30 35 34 36 33 31 29 31 33 32 32 30 29 28 27 28 25 25 23 25 21 22 15 22 22 24 26 31 32 31 30 26 21 18 20 26 17 16 11 13 15 14 18 14 19 20 19 14 14 14 13 13 11 13 13 11 10 10 6 2 6 13 11 10 9 9 10 10 10 10 10 11 10 10 11 10 11
37 33 39 41 53 48 37 25 25 26 26 34 31 29 36 34 33 32 31 31 30 27 28 24 30 30 27 29 23 23 26 18 25 20 19 21 24 31 32 32 29 21 21 19 20 22 15 15 13 12 10 8 9 8 12 16 18 9 10 14 16 15 14 14 14 13 9 7 5 5 3 6 12 12 11 10 9 9 9 10 11 10 9 10 9 9 9 9
40 41 33 32 33 36 33 38 26 26 27 30 28 29 34 33 34 34 34 29 31 26 29 24 26 28 28 26 27 25 25 18 18 24 16 21 23 31 32 31 30 23 29 31 24 24 19 18 13 10 7 4 3 6 9 11 13 11 17 17 16 15 13 11 12 12 9 8 5 4 5 8 12 12 11 10 9 9 10 10 10 11 9 9 10 9 7 6
36 21 36 31 33 33 34 34 30 27 27 26 25 27 28 30 34 34 36 31 29 32 23 29 30 25 25 25 24 23 22 26 20 17 16 17 19 29 29 30 30 26 27 29 28 25 18 17 14 13 10 9 11 12 14 18 11 10 11 16 15 16 14 12 12 11 9 9 9 2 4 3 2 4 6 10 10 9 9 9 8 8 9 10 9 8 6 5
35 30 30 27 38 30 29 33 34 32 26 31 20 26 24 27 27 33 37 27 31 30 29 27 29 24 24 25 24 24 24 22 25 18 14 15 17 22 29 31 28 30 27 29 30 20 18 16 16 15 11 12 12 12 15 18 10 8 9 11 12 16 14 12 10 10 12 8 6 4 5 5 5 3 3 10 10 9 9 8 8 8 9 8 7 7 14 6
28 30 35 34 34 29 29 25 35 34 34 29 23 29 26 26 28 23 32 28 30 27 27 28 27 27 26 25 25 21 21 21 22 18 20 17 21 22 23 27 23 28 28 20 20 17 13 13 19 14 12 14 13 12 12 15 11 8 7 8 8 13 15 11 10 14 12 5 5 5 7 7 6 5 8 9 9 9 9 9 9 9 7 6 7 6 4 4
35 33 34 36 31 27 32 31 36 32 30 28 25 31 27 28 26 26 27 26 31 25 29 22 25 26 27 26 26 19 23 15 18 22 19 19 21 20 21 22 23 25 20 18 19 19 16 17 16 16 14 14 16 15 14 13 10 8 7 11 12 12 12 12 13 13 12 10 11 9 9 9 8 6 9 10 10 9 9 9 9 7 5 6 6 5 5 5
30 35 24 34 29 22 26 28 32 37 27 29 22 27 30 28 28 28 30 29 23 27 28 26 27 27 26 26 25 22 24 25 22 19 19 22 21 20 18 17 18 21 22 19 18 18 17 15 17 14 13 14 15 12 12 12 6 5 6 12 13 9 8 9 11 12 13 12 11 11 9 9 9 10 9 10 10 9 9 8 7 6 5 5 5 5 5 5
40 40 38 27 27 24 26 28 30 27 22 23 25 30 31 29 28 30 30 33 28 26 29 27 28 28 28 25 26 26 27 26 26 25 26 24 20 22 18 20 21 20 21 21 20 20 16 15 15 16 11 9 9 7 3 3 8 9 10 10 9 7 5 7 10 13 9 9 10 9 9 9 7 10 9 9 8 7 7 7 6 6 5 6 5 5 6 4
41 40 42 43 22 22 21 23 29 31 24 29 30 30 28 30 30 31 27 33 31 33 32 30 30 28 26 26 27 26 27 26 27 26 24 24 22 22 21 21 21 20 20 19 20 19 15 16 17 12 10 6 4 3 -0 1 3 7 8 9 11 5 5 6 7 9 11 10 9 8 7 5 3 8 8 7 6 6 7 7 6 7 7 6 6 5 5 3